Weather in Pogost

Russia / Ryazan Oblast     55°00′26″N   41°09′28″E
temp.,
°C
wind,
m/s
gust,
m/s
humid.,
%
clouds,
%
prec.,
mm/h
press.,
hPa
HPBL,
m
7 march, sun
sun700:00−13wsw239433 0.0 101464
03:00−14sw369317 0.0 1012105
06:00−13ssw499233 0.0 1010240
09:00−8ssw7148467 0.0 1006721
12:00−6sw81592100 0.9 10011099
15:00−4sw81492100 2.7 9971172
18:00−3sw61394100 1.5 9941014
21:00−2sw61395100 3.0 9911010
8 march, mon
mon800:00−9w368667 0.1 992132
03:00−7wsw5119283 0.5 996739
06:00−10w41191100 0.3 997421
09:00−9sw499284 0.3 998381
12:00−5wsw5885100 0.1 9981050
15:00−5w5975100 0.9 9991355
18:00−8w388899 0.1 1001169
21:00−11nw399366 0.1 1005205
9 march, tue
tue900:00−13nw38960 0.0 1007195
03:00−16nw359722 0.0 100988
06:00−17nw259895 0.0 101189
09:00−14nw359496 0.1 1013256
12:00−11nw358795 0.1 1014559
15:00−10nw458597 0.1 1015750
18:00−14nnw3892100 0.1 1016372
21:00−19nnw389663 0.1 1019180
10 march, wed
wed1000:00−21nnw359945 0.0 1020128
03:00−23nw379849 0.0 1021135
06:00−25nw37980 0.0 1023136
09:00−22nnw35949 0.0 1025256
12:00−18nnw358418 0.0 1026505
15:00−15nnw35789 0.0 1026756
18:00−18nw239053 0.0 102623
21:00−22nw239226 0.0 102820
11 march, thu
thu1100:00−23wnw22910 0.0 102820
03:00−23w23950 0.0 102929
06:00−23w23950 0.0 102948
09:00−18wsw24890 0.0 1029181
12:00−12sw24790 0.0 1029372
15:00−10ssw35780 0.0 1028426
18:00−13s379321 0.0 1027196
21:00−14s4119559 0.1 1027269